Terminal Aerodrome Forecast
Issued by NWS

Home | Current Version | Previous Version | Text Only | Print | Product List | Glossary On
Versions: 1 2 3 4 5 6 7 8 9 10 11 12 13 14 15 16 17 18 19 20 21 22 23 24 25 26 27 28 29 30 31 32 33 34 35 36
000
FTUS46 KEKA 221736
TAFACV
TAF
KACV 221736Z 2218/2318 31005KT 2SM BR OVC002
      TEMPO 2219/2220 4SM BR OVC003
     FM222200 27006KT P6SM OVC007
     FM230300 24003KT 4SM BR OVC004
     FM230600 VRB02KT 2SM BR OVC002=

USA.gov is the U.S. government's official web portal to all federal, state and local government web resources and services.